Agadir Al Massira, Morocco

6:42 PM WET on May 25, 2017 (GMT +0000)
Agadir Al Massira

Weather History for GMAD - January, 2013

Change the Weather History Date:

Wednesday, January 23, 2013

  Actual Average Record
Temperature  
Mean Temperature 54 °F -  
Max Temperature 70 °F - - ()
Min Temperature 37 °F - - ()
Degree Days  
Heating Degree Days 12    
Growing Degree Days 4 (Base 50)    
Moisture  
Dew Point 41 °F    
Average Humidity 70    
Maximum Humidity 93    
Minimum Humidity 21    
Precipitation  
Precipitation 0.00 in - - ()
Sea Level Pressure  
Sea Level Pressure 30.13 in    
Wind  
Wind Speed 2 mph ()    
Max Wind Speed 9 mph    
Max Gust Speed -    
Visibility 6.1 miles    
Events      
T = Trace of Precipitation, MM = Missing Value Source: Averaged Metar Reports

Daily Weather History Graph

Daily Weather History Graph

Search for Another Location

Airport or City:

Trip Planner

Search our weather history database for the weather conditions in past years. The results will help you decide how hot, cold, wet, or windy it might be!

Date:

Astronomy

Jan. 23, 2013 Rise Set
Actual Time 7:32 AM WET 6:06 PM WET
Civil Twilight 7:07 AM WET 6:32 PM WET
Nautical Twilight 6:38 AM WET 7:01 PM WET
Astronomical Twilight 6:09 AM WET 7:29 PM WET
Moon 3:09 PM WET (1/23) 4:30 AM WET (1/23)
Length of Visible Light 11h 24m
Length of Day
10h 33m
Waxing Gibbous, 88% of the Moon is Illuminated
Jan 23
Waxing Gibbous
Jan 27
Full
Feb 3
Last Quarter
Feb 10
New
Feb 17
First Quarter

Hourly Weather History & Observations

Time (WET) Temp. Windchill Dew Point Humidity Pressure Visibility Wind Dir Wind Speed Gust Speed Precip Events Conditions
12:00 AM 50 °F - 46 °F 80% 30.14 in 6 mi Calm Calm - -   Scattered Clouds
12:00 AM 50.0 °F - 46.4 °F 87% 30.12 in 6.2 mi Calm Calm - N/A   Partly Cloudy
1:00 AM 46.4 °F - 44.6 °F 93% 30.12 in 6.2 mi Calm Calm - N/A   Partly Cloudy
2:00 AM 46.4 °F - 44.6 °F 93% 30.12 in 6.2 mi Calm Calm - N/A   Partly Cloudy
3:00 AM 45 °F - 42 °F 86% 30.15 in 6 mi Calm Calm - -   Scattered Clouds
3:00 AM 44.6 °F - 42.8 °F 93% 30.12 in 6.2 mi Calm Calm - N/A   Partly Cloudy
4:00 AM 41.0 °F - 39.2 °F 93% 30.12 in 6.2 mi Calm Calm - N/A   Partly Cloudy
5:00 AM 39.2 °F - 37.4 °F 93% 30.12 in 6.2 mi Calm Calm - N/A   Partly Cloudy
6:00 AM 38 °F - 35 °F 87% 30.16 in 6 mi Calm Calm - -  
6:00 AM 37.4 °F - 35.6 °F 93% 30.12 in - Calm Calm - N/A   Clear
7:00 AM 37.4 °F - 35.6 °F 93% 30.15 in - Calm Calm - N/A   Clear
8:00 AM 37.4 °F - 35.6 °F 93% 30.15 in - Calm Calm - N/A   Clear
9:00 AM 45 °F - 42 °F 86% 30.20 in 6 mi ENE 4.6 mph - -  
9:00 AM 44.6 °F 42.2 °F 42.8 °F 93% 30.18 in - ENE 4.6 mph - N/A   Clear
10:00 AM 51.8 °F - 46.4 °F 82% 30.18 in - NE 5.8 mph - N/A   Clear
11:00 AM 59.0 °F - 48.2 °F 67% 30.21 in - NE 5.8 mph - N/A   Clear
12:00 PM - - - %  in 6 mi Calm Calm - -  
12:00 PM - - - N/A% 30.18 in - North - - N/A   Clear
1:00 PM 66.2 °F - 44.6 °F 46% 30.12 in - Variable 2.3 mph - N/A   Clear
2:00 PM 66.2 °F - 42.8 °F 43% 30.09 in - WNW 4.6 mph - N/A   Clear
3:00 PM 70 °F - 39 °F 21% 30.09 in 6 mi SW 5.8 mph - -  
3:00 PM 69.8 °F - 39.2 °F 33% 30.09 in - SW 5.8 mph - N/A   Clear
4:00 PM 69.8 °F - 37.4 °F 31% 30.09 in - West 8.1 mph - N/A   Clear
5:00 PM 68.0 °F - 37.4 °F 33% 30.09 in - West 9.2 mph - N/A   Clear
6:00 PM 60 °F - 39 °F 34% 30.11 in 6 mi West 4.6 mph - -  
7:00 PM 60.8 °F - 39.2 °F 45% 30.09 in - West 3.5 mph - N/A   Clear
8:00 PM 51.8 °F - 39.2 °F 62% 30.12 in - Calm Calm - N/A   Clear
9:00 PM 49 °F - 39 °F 59% 30.16 in 6 mi ESE 2.3 mph - -  
9:00 PM 50.0 °F - 39.2 °F 66% 30.12 in - ESE 2.3 mph - N/A   Clear
10:00 PM 50.0 °F - 39.2 °F 66% 30.15 in - ESE 4.6 mph - N/A   Unknown
11:00 PM 46.4 °F 45.2 °F 39.2 °F 76% 30.18 in - NNE 3.5 mph - N/A   Unknown